Location: Unspecified
(38.9820°N, 0.0000°E)
Time: 10:42:14
(UTC+00:00)

Tiangong 2 - Pass Details

Date: 26 May 2019
Orbit: 376 x 389 km, 42.8° (Epoch: 19 June)

Event Time Altitude Azimuth Distance (km) Brightness Sun altitude
Rises 21:21:32 0° 290° (WNW) 2,237 5.9 -19.7°
Reaches altitude 10° 21:23:37 10° 294° (WNW) 1,384 4.8 -19.9°
Enters shadow 21:26:37 61° 4° (N) 432 1.4 -20.3°
